Location: Capannuccia
(43.7000°N, 11.3000°E)
Time: 16:02:03
(UTC+00:00)

Landsat 5 - Pass Details

Date: 07 June 2020
Orbit: 528 x 655 km, 98.2° (Epoch: 11 July)

Event Time Altitude Azimuth Distance (km) Brightness Sun altitude
Rises 02:39:35 0° 167° (SSE) 2,966 6.8 -8.5°
Reaches altitude 10° 02:41:48 10° 168° (SSE) 2,057 5.9 -8.2°
Maximum altitude 02:46:19 83° 254° (WSW) 659 3.6 -7.6°
Drops below altitude 10° 02:50:48 10° 345° (NNW) 2,038 6.6 -7.0°
Sets 02:52:59 0° 346° (NNW) 2,936 7.4 -6.7°
